Printer-friendly version

IAU Minor Planet Center

Minor Planet Center

MPEC 2006-K22 : 2006 KB1

The following Minor Planet Electronic Circular may be linked-to from your own Web pages, but must not otherwise be redistributed electronically.


Read MPEC 2006-K21 Read MPEC 2006-K23


M.P.E.C. 2006-K22                                Issued 2006 May 21, 17:02 UT

     The Minor Planet Electronic Circulars contain information on unusual
         minor planets and routine data on comets.  They are published
   on behalf of Commission 20 of the International Astronomical Union by the
          Minor Planet Center, Smithsonian Astrophysical Observatory,
                          Cambridge, MA 02138, U.S.A.

                  Supported in part by the Brinson Foundation
                  Supported in part by the TABASGO Foundation
             Prepared using the Tamkin Foundation Computer Network

                              MPC@CFA.HARVARD.EDU
          URL http://cfa-www.harvard.edu/iau/mpc.html  ISSN 1523-6714

                                   2006 KB1

Observations:
     K06K01B* C2006 05 20.35640 16 09 47.62 -05 01 45.9          16.9 V EK022703
     K06K01B  C2006 05 20.36280 16 09 51.08 -05 04 14.3          16.5 V EK022703
     K06K01B  C2006 05 20.36919 16 09 54.18 -05 06 43.0          17.0 V EK022703
     K06K01B  C2006 05 20.37558 16 09 57.45 -05 09 09.7          17.0 V EK022703
     K06K01B  C2006 05 20.40270 16 10 11.24 -05 19 25.9          16.9 V EK022703
     K06K01B  C2006 05 20.40305 16 10 11.46 -05 19 33.6          17.0 V EK022703
     K06K01B  C2006 05 20.40340 16 10 11.64 -05 19 41.3          16.9 V EK022703
     K06K01B  C2006 05 20.40376 16 10 11.78 -05 19 49.6          16.9 V EK022703
     K06K01B  C2006 05 20.43278 16 10 26.61 -05 30 33.8          17.1 V EK022703
     K06K01B  C2006 05 20.43315 16 10 26.79 -05 30 41.6          17.0 V EK022703
     K06K01B  C2006 05 20.43350 16 10 26.97 -05 30 49.9          16.9 V EK022703
     K06K01B  C2006 05 20.43385 16 10 27.19 -05 30 56.8          17.0 V EK022703
     K06K01B  C2006 05 20.60199 16 12 15.73 -06 23 28.1          17.1 V EK022E12
     K06K01B  C2006 05 20.60222 16 12 15.80 -06 23 32.6          17.3 V EK022E12
     K06K01B  C2006 05 20.60247 16 12 15.87 -06 23 37.2          17.1 V EK022E12
     K06K01B  C2006 05 20.60270 16 12 15.98 -06 23 42.0          17.4 V EK022E12
     K06K01B  C2006 05 20.60297 16 12 16.09 -06 23 47.2          17.3 V EK022E12
     K06K01B  C2006 05 20.63657 16 12 29.95 -06 34 39.8          16.8 V EK022E12
     K06K01B  C2006 05 20.63681 16 12 30.06 -06 34 44.2          16.8 V EK022E12
     K06K01B  C2006 05 20.63707 16 12 30.16 -06 34 49.6          16.7 V EK022E12
     K06K01B  C2006 05 20.63732 16 12 30.24 -06 34 53.7          16.9 V EK022E12
     K06K01B  C2006 05 20.63755 16 12 30.27 -06 34 58.6          16.8 V EK022E12
     K06K01B  C2006 05 20.67214 16 12 44.49 -06 45 52.3          17.2 V EK022E12
     K06K01B  C2006 05 20.67796 16 12 46.83 -06 47 40.8          17.5 V EK022E12
     K06K01B  C2006 05 20.68960 16 12 51.66 -06 51 15.9          17.5 V EK022E12
     K06K01B  C2006 05 20.92384 16 14 57.33 -08 04 19.6                 EK022204
     K06K01B  C2006 05 20.92593 16 14 58.09 -08 04 52.4                 EK022204
     K06K01B  C2006 05 20.92719 16 14 58.52 -08 05 12.2                 EK022204
     K06K01B  C2006 05 20.92897 16 14 59.13 -08 05 40.5                 EK022204
     K06K01B  C2006 05 20.93086 16 14 59.80 -08 06 10.5          17.4 R EK022204
     K06K01B  C2006 05 21.08254 16 16 03.78 -08 39 18.9          17.8 R EK022I77
     K06K01B  C2006 05 21.08407 16 16 04.24 -08 39 40.8          18.0 R EK022I77
     K06K01B  C2006 05 21.08815 16 16 05.34 -08 40 39.1          17.4 R EK022I77
     K06K01B  C2006 05 21.18940 16 16 41.31 -09 08 35.5          17.7 R EK022932
     K06K01B  C2006 05 21.19373 16 16 42.53 -09 09 33.9          17.5 R EK022932
     K06K01B  C2006 05 21.19533 16 16 52.26 -09 09 13.3          18.2 R EK022854
     K06K01B  C2006 05 21.19685 16 16 52.73 -09 09 33.9          18.1 R EK022854
     K06K01B  C2006 05 21.19716 16 16 52.81 -09 09 38.0          17.9 R EK022854
     K06K01B  C2006 05 21.19900 16 16 53.45 -09 10 04.5          18.3 R EK022854
     K06K01B  C2006 05 21.20291 16 16 45.14 -09 11 36.9          17.7 R EK022932
     K06K01B  C2006 05 21.20665 16 16 55.60 -09 11 45.8          18.3 R EK022854
     K06K01B 2C2006 05 21.25632 16 17 08.16 -09 22 47.7          17.6 R EK022H06
     K06K01B 2C2006 05 21.26364 16 17 10.03 -09 24 23.8          17.7 R EK022H06
     K06K01B 2C2006 05 21.27096 16 17 12.01 -09 25 57.3          17.8 R EK022H06
     K06K01B  C2006 05 21.34564 16 17 32.31 -09 41 34.6          17.6 V EK022G96
     K06K01B  C2006 05 21.34605 16 17 32.42 -09 41 39.8          17.5 V EK022G96
     K06K01B  C2006 05 21.34689 16 17 32.60 -09 41 50.0          17.5 V EK022G96
     K06K01B  C2006 05 21.35882 16 17 35.59 -09 44 15.6          17.8 V EK022G96
     K06K01B  C2006 05 21.35924 16 17 35.70 -09 44 20.6          17.8 V EK022G96
     K06K01B  C2006 05 21.35965 16 17 35.80 -09 44 25.7          17.8 V EK022G96
     K06K01B  C2006 05 21.36007 16 17 35.91 -09 44 31.2          17.7 V EK022G96
     K06K01B  C2006 05 21.36044 16 17 35.95 -09 44 35.2          17.5 V EK022703
     K06K01B  C2006 05 21.36813 16 17 37.82 -09 46 08.4          17.7 V EK022703
     K06K01B  C2006 05 21.38627 16 17 42.39 -09 49 46.0          17.6 V EK022703
     K06K01B  C2006 05 21.50795 16 18 35.06 -10 08 46.9          17.9 R EK022423
     K06K01B  C2006 05 21.52343 16 18 38.66 -10 11 43.0          18.2 R EK022423
     K06K01B  C2006 05 21.54042 16 18 42.49 -10 14 54.5          17.8 R EK022423
     K06K01B  C2006 05 21.55344 16 18 45.38 -10 17 20.2          18.1 R EK022423
     K06K01B  C2006 05 21.56627 16 18 48.78 -10 19 52.2          18.0 V EK022E12
     K06K01B  C2006 05 21.56669 16 18 48.81 -10 19 56.6          17.9 V EK022E12
     K06K01B  C2006 05 21.56711 16 18 48.92 -10 20 00.6          18.1 V EK022E12
     K06K01B  C2006 05 21.56752 16 18 48.99 -10 20 05.9          18.3 V EK022E12
     K06K01B  C2006 05 21.56793 16 18 49.10 -10 20 09.9          18.0 V EK022E12

Observer details:
204 Schiaparelli Observatory.  Observers L. Buzzi, F. Luppi.  Measurer
    L. Buzzi.  0.60-m f/4.64 reflector + CCD.
423 North Ryde.  Observer S. G. McAndrew.  0.20-m f/4 hyperbolic astrograph
    + CCD.
703 Catalina Sky Survey.  Observers R. A. Kowalski, E. C. Beshore.  Measurers
    E. C. Beshore, E. J. Christensen, G. J. Garradd, A. R. Gibbs, A. D. Grauer,
    R. E. Hill, R. A. Kowalski, S. M. Larson, R. H. McNaught.  0.68-m Schmidt
    + CCD.
854 Sabino Canyon Observatory, Tucson.  Observer J. E. McGaha.  0.36-m f/10.0
    Schmidt-Cassegrain + CCD.
932 John J. McCarthy Obs., New Milford.  Observer M. Robson.  0.4-m f/6.5
    Schmidt-Cassegrain + CCD.
E12 Siding Spring Survey.  Observer R. H. McNaught.  Measurers E. C. Beshore,
    E. J. Christensen, G. J. Garradd, A. R. Gibbs, A. D. Grauer, R. E. Hill,
    R. A. Kowalski, S. M. Larson, R. H. McNaught.  0.5-m Uppsala Schmidt + CCD.
G96 Mt. Lemmon Survey.  Observer R. Hill.  Measurers E. C. Beshore,
    E. J. Christensen, G. J. Garradd, A. R. Gibbs, A. D. Grauer, R. E. Hill,
    R. A. Kowalski, S. M. Larson, R. H. McNaught.  1.5-m reflector + CCD.
H06 New Mexico Skies Observatory.  Observer R. Hutsebaut.  0.30-m reflector
    + CCD.
I77 CEAMIG-REA Observatory, Belo Horizonte.  Observers C. Jacques, E. Pimentel.
    Measurer C. Jacques.  0.30-m f/3.0 Schmidt-Cassegrain + CCD.

Orbital elements:
2006 KB1                                                 Earth MOID = 0.0059 AU
Epoch 2006 Mar. 6.0 TT = JDT 2453800.5                  MPC
M 352.03657              (2000.0)            P               Q
n   0.25717296     Peri.    1.35440     -0.98865304     -0.15021236
a   2.4489834      Node   170.00613     +0.13775701     -0.90977255
e   0.6841921      Incl.    0.39222     +0.05990133     -0.38697565
P   3.83           H   24.4           G   0.15           U   6
Residuals in seconds of arc
060520 703  0.1-  0.2-    060520 E12  1.2-  0.3-    060521 H06  0.6-  0.6-
060520 703  2.6+  0.3+    060520 E12  0.1-  0.1-    060521 H06  0.3+  0.4+
060520 703  0.0   0.5-    060520 E12  0.7-  0.2-    060521 G96  0.1-  0.1+
060520 703  0.1+  0.1-    060520 E12  0.2+  0.0     060521 G96  0.0   0.1-
060520 703  0.5-  0.1-    060520 204  0.0   0.0     060521 G96  0.4-  0.0
060520 703  0.1+  0.0     060520 204  0.3+  0.3+    060521 G96  0.0   0.0
060520 703  0.1+  0.2+    060520 204  0.1+  0.5+    060521 G96  0.1+  0.1+
060520 703  0.5-  0.0     060520 204  0.2-  0.3+    060521 G96  0.1+  0.0
060520 703  0.4-  0.0     060520 204  0.1-  0.2+    060521 G96  0.2+  0.4-
060520 703  0.6-  0.3+    060521 I77  0.6+  0.8-    060521 703  0.3-  0.0
060520 703  0.5-  0.3-    060521 I77  1.0+  0.6-    060521 703  0.9-  0.1-
060520 703  0.1+  0.5+    060521 I77  0.0   0.1+    060521 703  0.1+  0.0
060520 E12  0.8+  0.1-    060521 932  0.3+  0.1+    060521 423  0.0   0.1-
060520 E12  0.4+  0.1-    060521 932  0.1+  0.0     060521 423  0.2+  0.1+
060520 E12  0.1-  0.2+    060521 854  0.1+  0.3+    060521 423  0.0   0.1+
060520 E12  0.1+  0.1-    060521 854  0.3+  0.3+    060521 423  0.1+  0.3-
060520 E12  0.0   0.0     060521 854  0.1+  0.4+    060521 E12  0.4+  0.4-
060520 E12  0.0   0.3-    060521 854  1.5+  1.2-    060521 E12  0.5-  0.2-
060520 E12  0.2+  0.1-    060521 932  0.2+  0.1-    060521 E12  0.2-  0.5+
060520 E12  0.1+  0.5-    060521 854  0.1-  0.8+    060521 E12  0.4-  0.3-
060520 E12  0.2-  0.2+    060521 H06  0.4+  0.5+    060521 E12  0.1-  0.2+

